[Iaude] MPEC A39: 2024 AQ [a=2.54,e=0.69,i=5.2,H=21.2,PHA]
    mpec at marsden.cfa.harvard.edu 
    mpec at marsden.cfa.harvard.edu
       
    Thu Jan  4 17:04:48 EST 2024
    
    
  
M.P.E.C. 2024-A39                               Issued 2024 January 4, 22:03 UT
     The Minor Planet Electronic Circulars contain information on unusual
         minor planets, routine data on comets and natural satellites,
         and occasional editorial announcements.  They are published
    on behalf of Division F of the International Astronomical Union by the
          Minor Planet Center, Smithsonian Astrophysical Observatory,
                          Cambridge, MA 02138, U.S.A.
			  
             Prepared using the Tamkin Foundation Computer Network
                              MPC at CFA.HARVARD.EDU
            URL https://www.minorplanetcenter.net/    ISSN 1523-6714
                                    2024 AQ                                     
Observations:
     K24A00Q* C2024 01 02.39711105 39 19.047+00 32 57.38         19.68wXEA039F51
     K24A00Q  C2024 01 02.42248305 39 14.167+00 31 43.91         19.63wXEA039F51
     K24A00Q  C2024 01 02.43523305 39 11.715+00 31 06.96         19.69wXEA039F51
     K24A00Q  C2024 01 02.54698605 38 50.442+00 25 41.94         19.37GVEA039F52
     K24A00Q  C2024 01 02.54762905 38 50.335+00 25 40.15         19.37GVEA039F52
     K24A00Q KB2024 01 02.96095705 37 36.90 +00 05 09.7          19.2 GXEA039958
     K24A00Q KB2024 01 02.96520805 37 36.10 +00 04 57.3          18.9 GXEA039958
     K24A00Q KB2024 01 02.96940005 37 35.27 +00 04 45.4          19.1 GXEA039958
     K24A00Q KC2024 01 03.17491305 36 57.62 -00 05 28.7          19.6 GVEA039H21
     K24A00Q KC2024 01 03.18022405 36 56.56 -00 05 44.8          19.6 GVEA039H21
     K24A00Q KC2024 01 03.18311305 36 56.00 -00 05 53.6          19.5 GVEA039H21
     K24A00Q |C2024 01 03.21028005 36 49.960-00 06 34.10         19.1 GVEA039807
     K24A00Q |C2024 01 03.21156005 36 49.710-00 06 37.80         19.3 GVEA039807
     K24A00Q |C2024 01 03.21251005 36 49.520-00 06 40.80         19.4 GVEA039807
     K24A00Q KC2024 01 03.43273805 36 09.468-00 17 41.60         19.6 GVEA039474
     K24A00Q KC2024 01 03.43514505 36 09.005-00 17 49.09         19.7 GVEA039474
     K24A00Q KC2024 01 03.43755105 36 08.525-00 17 56.40         19.5 GVEA039474
     K24A00Q KC2024 01 03.43995705 36 08.021-00 18 04.14         19.3 GVEA039474
     K24A00Q KC2024 01 03.78516 05 35 03.04 -00 36 36.0          19.8 VZEA039M63
     K24A00Q KC2024 01 03.81861 05 34 56.24 -00 38 20.1          19.6 VZEA039M63
     K24A00Q KB2024 01 04.18973 05 33 43.25 -00 57 47.4          19.3 GVEA039734
     K24A00Q KB2024 01 04.19685 05 33 41.78 -00 58 09.1          19.3 GVEA039734
     K24A00Q KB2024 01 04.20397 05 33 40.27 -00 58 32.0          19.3 GVEA039734
     K24A00Q KB2024 01 04.21766 05 33 37.49 -00 59 15.0          18.3 GVEA039734
     K24A00Q bC2024 01 04.76432605 31 49.35 -01 28 42.7          19.5 GVEA039L01
     K24A00Q bC2024 01 04.76601105 31 48.99 -01 28 48.1          19.6 GVEA039L01
     K24A00Q bC2024 01 04.76769605 31 48.60 -01 28 54.0          19.3 GVEA039L01
     K24A00Q bC2024 01 04.76938305 31 48.21 -01 29 00.2          19.1 GVEA039L01
     K24A00Q bC2024 01 04.77106805 31 47.89 -01 29 04.9          19.4 GVEA039L01
     K24A00Q KC2024 01 04.80157605 31 41.56 -01 30 44.9          19.1 GVEA039587
     K24A00Q KC2024 01 04.80277505 31 41.33 -01 30 48.3                VEA039587
Observer details:
474 Mount John Observatory, Lake Tekapo.  Observers A. C. Gilmore, P. M.
    Kilmartin.  Measurer P. M. Kilmartin.  1.0-m f/7.7 Reflector + CCD.
587 Sormano.  Observers A. Fumagalli, A. Testa.  Measurer A. Testa.  0.5-m
    f/6.8 reflector + CCD.
734 Farpoint Observatory, Eskridge.  Observers D. Cromer, G. Hug, D. Goodin,
    R. Valentine.  Measurer D. Cromer.  0.69-m f/3.54 reflector + CMO.
807 Cerro Tololo Observatory, La Serena.  Observers T. Linder, R. Holmes.
    0.61-m f/11 Ritchey-Chretien + CCD.
958 Observatoire de Dax.  Observer P. Dupouy.  0.50-m f/4.5 Reflector + CMO.
F51 Pan-STARRS 1, Haleakala.  Observers J. Herman, T. Lowe, P. Minguez, A.
    Schultz, I. Smith.  Measurers K. Chambers, T. de Boer, J. Fairlamb, H.
    Gao, M. Huber, C.-C. Lin, E. Magnier, Y. Ramanjooloo, R. Wainscoat, R.
    Weryk.  1.8-m Ritchey-Chretien + CCD.
F52 Pan-STARRS 2, Haleakala.  Observers J. Herman, T. Lowe, P. Minguez, A.
    Schultz, I. Smith.  Measurers K. Chambers, T. de Boer, J. Fairlamb, H.
    Gao, M. Huber, C.-C. Lin, E. Magnier, Y. Ramanjooloo, R. Wainscoat, R.
    Weryk.  1.8-m Ritchey-Chretien + CCD.
H21 Astronomical Research Observatory, Westfield.  Observer R. Holmes.
    Measurers T. Linder, R. Holmes, L. Horn.  0.76-m f/3.0 astrograph + CCD.
L01 Visnjan Observatory, Tican.  Observers K. Korlevic, L. Poropat.  Measurer
    K. Korlevic.  1.0-m f/2.9 reflector + CCD.
M63 RPF Observatory, Gagliano del Capo.  Observer D. Licchelli.  0.30-m f/5.3
    reflector + CCD.
Orbital elements:
2024 AQ                                             PHA, Earth MOID = 0.0435 AU
Epoch 2023 Sept. 13.0 TT = JDT 2460200.5                Veres                   
M 317.89488              (2000.0)            P               Q                  
n   0.24405473     Peri.  323.73642     -0.99837416     +0.01475042             
a   2.5359726      Node   217.22476     +0.00423028     -0.94409924             
e   0.6947078      Incl.    5.22199     -0.05684321     -0.32933120             
P   4.04           H   21.20          G   0.15           U   8                  
Residuals in seconds of arc
240102 F51  0.1-  0.0     240103 807  0.1-  0.0     240104 734  0.2-  0.2+
240102 F51  0.0   0.0     240103 807  0.0   0.2+    240104 734  1.2+  0.7+
240102 F51  0.0   0.0     240103 807  0.0   0.0     240104 L01  0.1+  0.3-
240102 F52  0.0   0.0     240103 474  0.3-  0.2+    240104 L01  0.0   0.2-
240102 F52  0.2+  0.1+    240103 474  0.0   0.0     240104 L01  0.5-  0.5-
240102 958  0.3-  0.4-    240103 474  0.0   0.1+    240104 L01  1.0-  1.2-
240102 958  0.2+  0.1-    240103 474  0.4-  0.3-    240104 L01  0.5-  0.4-
240102 958  0.0   0.5+    240103 M63  0.2+  0.1+    240104 587  0.2+  0.0
240103 H21  0.1+  0.0     240103 M63  0.1-  0.1+    240104 587  0.5+  0.5+
240103 H21  0.0   0.1-    240104 734  0.2-  0.5-
240103 H21  0.1+  0.2-    240104 734  0.1+  0.5+
Ephemeris:
2024 AQ                  a,e,i = 2.54, 0.69, 5                   q = 0.7742
Date    TT    R. A. (2000) Decl.     Delta      r    Elong.  Phase     V
2023 12 05    06 20 51.1 +13 32 51   0.5500  1.5026   155.2    16.0    21.7
...
2023 12 20    06 07 40.4 +08 31 14   0.3733  1.3472   164.5    11.3    20.4
...
2023 12 28    05 53 14.8 +04 21 31   0.2947  1.2638   159.6    15.7    19.9
...
2024 01 03    05 37 29.9 +00 03 41   0.2429  1.2015   151.0    23.4    19.6
2024 01 04    05 34 20.3 -00 47 21   0.2348  1.1911   149.2    25.0    19.6
2024 01 05    05 30 59.8 -01 41 08   0.2270  1.1808   147.4    26.7    19.5
...
2024 01 11    05 06 15.8 -08 13 46   0.1837  1.1196   134.3    38.9    19.3
...
2024 01 19    04 12 58.6 -21 14 45   0.1383  1.0403   110.4    62.4    19.2
...
2024 02 03    23 56 02.1 -47 32 29   0.1224  0.9062    46.8   127.5    21.9
M. P. C. Staff               (C) Copyright 2024 MPC           M.P.E.C. 2024-A39
    
    
More information about the Iaude
mailing list